Flag for Germany Weather past 2 weeks in Wetzlar, Hesse, Germany

Now
56 °F

Passing clouds.


Feels Like: 56 °F
Forecast: 51 / 63 °F
Wind: 3 mph from Southwest

Location: Giessen

Current Time: Aug 30, 2014 at 4:31:47 AM

Latest Report: Aug 30, 2014 at 4:00 AM


Visibility: 1 mi

Pressure: 30.06 "Hg

Humidity: 98%

Dew point: 56 °F

Location of WetzlarLocation

Historic Weather in Wetzlar — Graph

°F

Wetzlar temperature yesterday

Maximum temperature yesterday: 74 °F (at 4:00 PM)
Minimum temperature yesterday: 57 °F (at 4:00 AM)
Average temperature yesterday: 64 °F

Past Weeks' High & Low Weather Summary

 TemperatureHumidityPressure
High74 °F (Aug 29, 4:00 PM)98% (Aug 15, 7:00 AM)30.12 "Hg (Aug 15, 7:00 AM)
Low42 °F (Aug 25, 4:00 AM)40% (Aug 21, 4:00 PM)29.66 "Hg (Aug 26, 7:00 AM)
Average57 °F81%29.95 "Hg
* Reported Aug 15 3:00 AM — Aug 30 3:00 AM, Wetzlar, Weather by CustomWeather, © 2014

Note: Actual official high and low records may vary slightly from our data, if they occured in-between our weather recording intervals... More about our weather records

Advertising

Wetzlar weather history for previous 24 hours

 ConditionsComfort  
Time TempWeatherWind HumidityBarometerVisibility
3:00 AM
Aug 30
55 °FOvercast.2 mph98%30.06 "Hg1 mi
2:00 AM56 °FOvercast.2 mph98%30.06 "Hg2 mi
1:00 AM56 °FOvercast.1 mph98%30.06 "Hg1 mi
12:00 AM59 °FOvercast.1 mph96%30.05 "Hg5 mi
9:00 PM
Aug 29
63 °FOvercast.1 mph91%30.01 "Hg16 mi
8:00 PM65 °FRain. Overcast.1 mph85%30.00 "Hg10 mi
7:00 PM65 °FOvercast.3 mph82%29.98 "Hg43 mi
6:00 PM66 °FLight rain. Overcast.6 mph77%29.98 "Hg16 mi
5:00 PM73 °FPartly sunny.5 mph53%29.97 "Hg43 mi
4:00 PM74 °FPassing clouds.6 mph53%29.98 "Hg16 mi
3:00 PM73 °FSunny.6 mph56%29.99 "Hg13 mi
2:00 PM71 °FScattered clouds.6 mph62%30.00 "Hg16 mi
1:00 PM69 °FOvercast.5 mph75%30.01 "Hg34 mi
12:00 PM66 °FOvercast.5 mph78%30.01 "Hg31 mi
11:00 AM65 °FOvercast.3 mph83%30.01 "Hg16 mi
10:00 AM64 °FOvercast.3 mph88%30.01 "Hg14 mi
9:00 AM61 °FOvercast.1 mph96%30.00 "Hg11 mi
8:00 AM59 °FOvercast.3 mph98%29.99 "Hg6 mi
7:00 AM59 °FOvercast.2 mph98%29.98 "Hg5 mi
6:00 AM58 °FFog.2 mph98%29.98 "Hg3 mi
5:00 AM59 °FFog.2 mph98%29.98 "Hg4 mi
4:00 AM57 °FOvercast.2 mph97%29.98 "Hg4 mi
Weather by CustomWeather, © 2014

See weather overviewHow to use our weather pages